map of PPB home
Great Circle Mapper logo
PPB - Airport
Location
City:  Presidente Prudente, São Paulo, Brazil
Name:A. De Barros
ICAO / IATA:SBDN / PPB

Details
Type:Airport (Aerodrome, Airfield)
Use:Public/Civil
Latitude:22°10'30"S (-22.175055)
Longitude:51°25'29"W (-51.424638)
Datum:WGS 1984
Elevation:1477 ft (450 m)
Variation:18.81°W (WMM2015 magnetic declination)
-0.15° annual change
Runways:1
Longest:6923 × 115 ft (2110 × 35 m), paved

Time
Time Zone:UTC-3 (DST-2)
Local Time:

Weather
METAR:SBDN 310200Z 11010KT CAVOK 21/11 Q1019
TAF:SBDN 302230Z 3100/3112 09006KT CAVOK TX22/3100Z TN17/3109Z
RMK PER

Related Locations
Nearby:
Farthest:MMY: 12165 mi / 19577 km
Miyakojima, Ryuku, JP

Find:

   beyond  
but within

Other Information
Maps:
NOTAMs:
Links:
Sources:

  
flag of Brazil
flag of São Paulo
  

Sectional Chart

Flight Planning
at skyvector.com

Satellite Image

Google Maps Satellite view

 

Copyright © 2004-2015 Karl L. Swartz. All rights reserved.
The Great Circle Mapper name and logo are trademarks of the Great Circle Mapper.
All other trademarks mentioned herein belong to their respective owners.
Please see credits for attibutions and further copyright information.

  Follow gcmap on Facebook Follow gcmap on Twitter Follow gcmap on Google+

hCard Microformat

Geo Microformat